CW0212 Weather Reports


Display with metric or nautical units.
time (UTC)temp
F
wind
direction
speed
MPH
gust
MPH
rain 1hr
in
rain 24hr
in
rain mn
in
humidity
%
barometer
mb
20171213051636 27 280 0.0 0.0 0.00 0.00 0.00 56 1017.9
20171213051135 28 280 0.0 0.0 0.00 0.00 0.00 56 1017.9
20171213050639 28 280 0.0 0.0 0.00 0.00 0.00 57 1017.9
20171213050143 28 280 0.0 0.0 0.00 0.00 0.00 56 1017.9
20171213045646 28 280 0.0 0.0 0.00 0.00 0.00 56 1018.0
20171213045146 28 280 0.0 0.0 0.00 0.00 0.00 56 1018.0
20171213044646 28 280 0.0 0.0 0.00 0.00 0.00 57 1018.0
20171213044145 28 280 0.0 0.0 0.00 0.00 0.00 57 1018.0
20171213043647 29 280 0.0 0.0 0.00 0.00 0.00 56 1018.0
20171213043150 29 280 0.0 0.0 0.00 0.00 0.00 55 1018.0
20171213042631 29 279 0.0 0.0 0.00 0.00 0.00 57 1018.0
20171213042137 29 279 0.0 0.0 0.00 0.00 0.00 55 1018.0
20171213041637 29 279 0.0 0.0 0.00 0.00 0.00 53 1018.0
20171213041137 30 317 0.0 0.0 0.00 0.00 0.00 53 1018.0
20171213040637 30 317 0.0 0.0 0.00 0.00 0.00 54 1018.0
20171213040136 30 317 0.0 0.0 0.00 0.00 0.00 51 1018.0
20171213035638 31 317 0.0 0.0 0.00 0.00 0.00 49 1018.0
20171213035141 31 317 0.0 0.0 0.00 0.00 0.00 49 1018.0
20171213034644 31 317 0.0 0.0 0.00 0.00 0.00 49 1018.0
20171213034146 31 317 0.0 0.0 0.00 0.00 0.00 48 1018.0
20171213033649 31 317 0.0 0.0 0.00 0.00 0.00 47 1018.0
20171213033128 31 317 0.0 0.0 0.00 0.00 0.00 46 1018.0
20171213032631 31 309 0.0 0.0 0.00 0.00 0.00 47 1017.7
20171213032137 31 321 0.0 2.0 0.00 0.00 0.00 47 1017.7
20171213031637 31 284 0.0 2.0 0.00 0.00 0.00 48 1017.7
20171213031140 31 302 0.0 0.0 0.00 0.00 0.00 49 1017.5
20171213030640 31 300 0.0 3.0 0.00 0.00 0.00 50 1017.5
20171213030140 31 290 0.0 3.0 0.00 0.00 0.00 50 1017.5
20171213025642 31 304 0.0 1.0 0.00 0.00 0.00 52 1017.7
20171213025141 31 306 0.0 1.0 0.00 0.00 0.00 52 1017.7
20171213024640 31 314 0.0 0.0 0.00 0.00 0.00 52 1017.7
20171213024142 31 302 0.0 0.0 0.00 0.00 0.00 52 1017.9
20171213023642 32 297 0.0 0.0 0.00 0.00 0.00 51 1017.9
20171213023141 32 286 0.0 0.0 0.00 0.00 0.00 50 1017.9
20171213022641 32 286 0.0 0.0 0.00 0.00 0.00 49 1017.8
20171213022204 32 315 0.0 0.0 0.00 0.00 0.00 50 1017.8
20171213021644 33 294 0.0 2.0 0.00 0.00 0.00 52 1017.8
20171213021147 33 294 0.0 2.0 0.00 0.00 0.00 49 1017.4
20171213020646 33 302 0.0 0.0 0.00 0.00 0.00 51 1017.4
20171213020147 33 302 0.0 0.0 0.00 0.00 0.00 49 1017.4
20171213015646 33 302 0.0 1.0 0.00 0.00 0.00 49 1017.5
20171213015148 33 306 0.0 1.0 0.00 0.00 0.00 48 1017.5
20171213014647 33 290 0.0 0.0 0.00 0.00 0.00 48 1017.5
20171213014148 34 287 0.0 0.0 0.00 0.00 0.00 49 1017.2
20171213013646 34 292 0.0 0.0 0.00 0.00 0.00 51 1017.2
20171213000140 35 309 0.0 0.0 0.00 0.00 0.00 59 1016.4
20171212235644 35 302 0.0 0.0 0.00 0.00 0.00 59 1016.3
20171212235147 35 284 0.0 0.0 0.00 0.00 0.00 59 1016.3
20171212234650 35 276 0.0 0.0 0.00 0.00 0.00 59 1016.3
20171212234151 35 276 0.0 0.0 0.00 0.00 0.00 58 1015.9
20171212233652 36 276 0.0 0.0 0.00 0.00 0.00 57 1015.9
20171212233154 36 264 0.0 0.0 0.00 0.00 0.00 57 1015.9
20171212232656 36 281 0.0 0.0 0.00 0.00 0.00 56 1015.8
20171212232157 36 281 0.0 0.0 0.00 0.00 0.00 55 1015.8
20171212231642 36 281 0.0 0.0 0.00 0.00 0.00 55 1015.8
20171212231142 36 281 0.0 0.0 0.00 0.00 0.00 55 1015.8
20171212230643 37 281 0.0 0.0 0.00 0.00 0.00 55 1015.8
20171212230144 37 288 0.0 0.0 0.00 0.00 0.00 54 1015.8
20171212225856 37 294 0.0 0.0 0.00 0.00 0.00 54 1015.5
20171212225146 37 333 0.0 2.0 0.00 0.00 0.00 53 1015.5
20171212224647 37 288 0.0 0.0 0.00 0.00 0.00 53 1015.5
20171212224151 37 287 0.0 0.0 0.00 0.00 0.00 53 1015.3
20171212223651 38 287 0.0 0.0 0.00 0.00 0.00 51 1015.3
20171212223157 38 287 0.0 0.0 0.00 0.00 0.00 51 1015.3
20171212222642 38 286 0.0 0.0 0.00 0.00 0.00 51 1015.3
20171212222143 38 286 0.0 0.0 0.00 0.00 0.00 51 1015.3
20171212221650 38 280 0.0 0.0 0.00 0.00 0.00 50 1015.3
20171212221152 39 318 0.0 1.0 0.00 0.00 0.00 50 1015.3
20171212220653 39 287 0.0 2.0 0.00 0.00 0.00 49 1015.3
20171212220155 39 277 0.0 2.0 0.00 0.00 0.00 49 1015.3
20171212215656 39 304 0.0 1.0 0.00 0.00 0.00 49 1015.3
20171212215157 39 296 0.0 5.0 0.00 0.00 0.00 49 1015.3
20171212214659 39 328 0.0 6.0 0.00 0.00 0.00 49 1015.3
20171212214140 40 299 1.0 6.0 0.00 0.00 0.00 49 1015.1
20171212213644 40 329 0.0 7.0 0.00 0.00 0.00 49 1015.1
20171212213148 40 285 1.0 7.0 0.00 0.00 0.00 50 1015.1
20171212212651 40 277 0.0 2.0 0.00 0.00 0.00 50 1015.0
20171212212152 40 319 0.0 4.0 0.00 0.00 0.00 51 1015.0
20171212211653 41 301 0.0 4.0 0.00 0.00 0.00 51 1015.0
20171212211152 41 268 0.0 4.0 0.00 0.00 0.00 52 1014.9
20171212210656 41 281 0.0 4.0 0.00 0.00 0.00 51 1014.9
20171212210159 41 284 0.0 5.0 0.00 0.00 0.00 51 1014.9
20171212205659 41 285 1.0 5.0 0.00 0.00 0.00 50 1015.0
20171212205201 42 276 0.0 6.0 0.00 0.00 0.00 50 1015.0
20171212204701 42 335 1.0 9.0 0.00 0.00 0.00 50 1015.0
20171212204201 42 294 1.0 9.0 0.00 0.00 0.00 51 1015.0
20171212203659 42 289 1.0 6.0 0.00 0.00 0.00 48 1015.0
20171212203143 42 284 0.0 4.0 0.00 0.00 0.00 51 1015.0
20171212202645 42 285 1.0 5.0 0.00 0.00 0.00 53 1014.8
20171212202146 42 277 0.0 6.0 0.00 0.00 0.00 53 1014.8
20171212201648 42 301 0.0 6.0 0.00 0.00 0.00 53 1014.8
20171212201149 42 256 0.0 6.0 0.00 0.00 0.00 53 1014.8
20171212200650 42 231 0.0 11.0 0.00 0.00 0.00 52 1014.8
20171212200155 43 279 3.0 11.0 0.00 0.00 0.00 50 1014.8
20171212195656 43 342 0.0 10.0 0.00 0.00 0.00 52 1014.7
20171212195156 43 309 0.0 8.0 0.00 0.00 0.00 53 1014.7
20171212194640 43 276 0.0 6.0 0.00 0.00 0.00 55 1014.7
20171212194143 42 251 0.0 6.0 0.00 0.00 0.00 55 1014.5
20171212193643 42 292 1.0 7.0 0.00 0.00 0.00 55 1014.5
20171212193152 43 274 2.0 8.0 0.00 0.00 0.00 54 1014.5
20171212192653 44 296 1.0 8.0 0.00 0.00 0.00 53 1014.3
20171212192154 44 338 1.0 7.0 0.00 0.00 0.00 52 1014.3
20171212191658 44 289 2.0 11.0 0.00 0.00 0.00 52 1014.3
20171212191143 44 291 1.0 11.0 0.00 0.00 0.00 53 1014.3
20171212190646 44 298 0.0 4.0 0.00 0.00 0.00 57 1014.3
20171212190151 43 265 0.0 4.0 0.00 0.00 0.00 55 1014.3
20171212185652 44 304 0.0 4.0 0.00 0.00 0.00 54 1014.4
20171212185152 44 282 0.0 3.0 0.00 0.00 0.00 57 1014.4
20171212184656 43 288 0.0 9.0 0.00 0.00 0.00 60 1014.4
20171212184141 42 294 1.0 9.0 0.00 0.00 0.00 61 1014.6
20171212183649 42 340 0.0 8.0 0.00 0.00 0.00 61 1014.6
20171212183150 42 296 1.0 7.0 0.00 0.00 0.00 61 1014.6
20171212182652 42 300 0.0 5.0 0.00 0.00 0.00 61 1014.5
20171212182156 43 293 1.0 8.0 0.00 0.00 0.00 62 1014.5
20171212181640 43 284 1.0 6.0 0.00 0.00 0.00 62 1014.5
20171212181143 43 321 0.0 4.0 0.00 0.00 0.00 60 1014.6
20171212180644 44 284 0.0 5.0 0.00 0.00 0.00 59 1014.6
20171212180144 44 275 0.0 7.0 0.00 0.00 0.00 59 1014.6
20171212175648 44 255 1.0 8.0 0.00 0.00 0.00 59 1014.7
20171212175152 44 327 2.0 8.0 0.00 0.00 0.00 60 1014.7
20171212174652 44 325 1.0 3.0 0.00 0.00 0.00 62 1014.7
20171212174142 43 321 0.0 3.0 0.00 0.00 0.00 62 1014.9
20171212173643 43 305 0.0 3.0 0.00 0.00 0.00 62 1014.9
20171212173148 43 315 0.0 0.0 0.00 0.00 0.00 64 1014.9
20171212172647 42 228 0.0 0.0 0.00 0.00 0.00 64 1015.3
20171212172149 42 289 0.0 0.0 0.00 0.00 0.00 64 1015.3
20171212171650 42 288 0.0 1.0 0.00 0.00 0.00 64 1015.3
20171212171152 42 303 0.0 3.0 0.00 0.00 0.00 64 1015.3
20171212170653 42 284 0.0 0.0 0.00 0.00 0.00 66 1015.3
20171212170156 42 270 0.0 0.0 0.00 0.00 0.00 64 1015.3
20171212165656 42 331 0.0 0.0 0.00 0.00 0.00 64 1015.5
20171212165157 42 302 0.0 5.0 0.00 0.00 0.00 65 1015.5
20171212164642 42 321 0.0 6.0 0.00 0.00 0.00 66 1015.5
20171212164151 42 277 0.0 5.0 0.00 0.00 0.00 67 1015.8
20171212163655 42 302 0.0 4.0 0.00 0.00 0.00 67 1015.8
20171212163140 42 279 0.0 4.0 0.00 0.00 0.00 66 1015.8
20171212162644 42 304 0.0 5.0 0.00 0.00 0.00 67 1015.4
20171212162149 42 283 1.0 5.0 0.00 0.00 0.00 66 1015.4
20171212161653 42 294 0.0 6.0 0.00 0.00 0.00 66 1015.4
20171212161155 42 284 1.0 14.0 0.00 0.00 0.00 66 1015.2
20171212160656 43 292 0.0 14.0 0.00 0.00 0.00 65 1015.2
20171212160158 43 288 1.0 11.0 0.00 0.00 0.00 65 1015.2
20171212155659 43 292 2.0 11.0 0.00 0.00 0.00 66 1014.9
20171212155200 43 310 0.0 9.0 0.00 0.00 0.00 66 1014.9
20171212154645 43 313 1.0 8.0 0.00 0.00 0.00 67 1014.9
20171212154146 43 290 2.0 10.0 0.00 0.00 0.00 66 1014.6
20171212153647 43 348 2.0 10.0 0.00 0.00 0.00 67 1014.6
20171212153151 43 273 0.0 6.0 0.00 0.00 0.00 67 1014.6
20171212152652 43 269 0.0 6.0 0.00 0.00 0.00 67 1014.3
20171212152153 43 277 0.0 2.0 0.00 0.00 0.00 67 1014.3
20171212151655 43 275 0.0 1.0 0.00 0.00 0.00 67 1014.3
20171212151156 43 313 0.0 4.0 0.00 0.00 0.00 67 1014.2
20171212150656 43 298 0.0 4.0 0.00 0.00 0.00 66 1014.2
20171212150141 43 278 0.0 2.0 0.00 0.00 0.00 67 1014.2
20171212145644 43 288 0.0 0.0 0.00 0.00 0.00 67 1014.1
20171212145146 43 275 0.0 2.0 0.00 0.00 0.00 67 1014.1
20171212144651 43 282 0.0 7.0 0.00 0.00 0.00 66 1014.1
20171212144155 44 284 1.0 8.0 0.00 0.00 0.00 66 1013.8
20171212143657 44 278 2.0 8.0 0.00 0.00 0.00 66 1013.8
20171212143142 44 287 0.0 2.0 0.00 0.00 0.00 66 1013.8
20171212142647 44 288 0.0 1.0 0.00 0.00 0.00 66 1013.7
20171212142150 44 290 0.0 1.0 0.00 0.00 0.00 66 1013.7
20171212141653 44 284 0.0 1.0 0.00 0.00 0.00 66 1013.7
20171212141153 44 285 0.0 4.0 0.00 0.00 0.00 66 1013.4
20171212140658 44 288 0.0 7.0 0.00 0.00 0.00 66 1013.4
20171212140157 44 299 1.0 7.0 0.00 0.00 0.00 65 1013.4
20171212135641 44 310 0.0 4.0 0.00 0.00 0.00 65 1013.1
20171212135148 44 313 0.0 2.0 0.00 0.00 0.00 66 1013.1
20171212134649 44 324 0.0 0.0 0.00 0.00 0.00 65 1013.1
20171212134152 44 313 0.0 0.0 0.00 0.00 0.00 65 1013.0
20171212133657 44 283 0.0 0.0 0.00 0.00 0.00 65 1013.0
20171212133159 43 302 0.0 0.0 0.00 0.00 0.00 66 1013.0
20171212132640 43 300 0.0 0.0 0.00 0.00 0.00 66 1012.7
20171212132144 43 296 0.0 0.0 0.00 0.00 0.00 65 1012.7
20171212131648 43 323 0.0 0.0 0.00 0.00 0.00 66 1012.7
20171212131150 43 308 0.0 0.0 0.00 0.00 0.00 66 1012.6
20171212130651 43 251 0.0 1.0 0.00 0.00 0.00 66 1012.6
20171212130153 43 285 0.0 3.0 0.00 0.00 0.00 66 1012.6
20171212125654 43 304 0.0 1.0 0.00 0.00 0.00 67 1012.6
20171212125142 43 292 0.0 1.0 0.00 0.00 0.00 67 1012.6
20171212124643 43 300 0.0 0.0 0.00 0.00 0.00 66 1012.6
20171212124144 43 294 0.0 0.0 0.00 0.00 0.00 65 1012.4
20171212123648 43 299 0.0 0.0 0.00 0.00 0.00 65 1012.4
20171212123152 43 320 0.0 0.0 0.00 0.00 0.00 64 1012.4
20171212122653 43 292 0.0 1.0 0.00 0.00 0.00 64 1012.1
20171212122153 43 317 0.0 1.0 0.00 0.00 0.00 64 1012.1
20171212121655 43 303 0.0 0.0 0.00 0.00 0.00 64 1012.1
20171212121157 43 286 0.0 0.0 0.00 0.00 0.00 63 1012.0
20171212120642 43 285 0.0 1.0 0.00 0.00 0.00 63 1012.0
20171212120143 44 338 0.0 1.0 0.00 0.00 0.00 62 1012.0
20171212115652 44 313 0.0 0.0 0.00 0.00 0.00 62 1011.6
20171212115153 44 313 0.0 3.0 0.00 0.00 0.00 62 1011.6
20171212114658 43 312 0.0 0.0 0.00 0.00 0.00 63 1011.6
20171212114140 43 298 0.0 0.0 0.00 0.00 0.00 63 1011.5
20171212113643 43 308 0.0 0.0 0.00 0.00 0.00 63 1011.5
20171212113148 43 281 0.0 0.0 0.00 0.00 0.00 63 1011.5
20171212112649 43 286 0.0 0.0 0.00 0.00 0.00 64 1011.6
20171212112151 43 286 0.0 0.0 0.00 0.00 0.00 64 1011.6
20171212111655 43 287 0.0 0.0 0.00 0.00 0.00 65 1011.6
20171212111157 42 294 0.0 0.0 0.00 0.00 0.00 66 1011.5
20171212110658 42 296 0.0 0.0 0.00 0.00 0.00 67 1011.5
20171212110144 42 296 0.0 0.0 0.00 0.00 0.00 68 1011.5
20171212105646 41 296 0.0 0.0 0.00 0.00 0.00 68 1011.2
20171212105150 41 296 0.0 0.0 0.00 0.00 0.00 70 1011.2
20171212104655 40 296 0.0 0.0 0.00 0.00 0.00 72 1011.2
20171212104156 40 306 0.0 0.0 0.00 0.00 0.00 73 1011.0
20171212103701 40 306 0.0 0.0 0.00 0.00 0.00 74 1011.0
20171212103255 40 306 0.0 0.0 0.00 0.00 0.00 74 1011.0
20171212102643 40 306 0.0 0.0 0.00 0.00 0.00 75 1011.2
20171212102148 40 157 0.0 0.0 0.00 0.00 0.00 76 1011.2
20171212101653 40 157 0.0 0.0 0.00 0.00 0.00 76 1011.2
20171212101154 40 157 0.0 0.0 0.00 0.00 0.00 76 1011.0
20171212100642 40 157 0.0 0.0 0.00 0.00 0.00 76 1011.0
20171212100143 40 157 0.0 0.0 0.00 0.00 0.00 76 1011.0
20171212095644 40 157 0.0 0.0 0.00 0.00 0.00 77 1011.0
20171212095145 40 157 0.0 0.0 0.00 0.00 0.00 77 1011.0
20171212094647 40 157 0.0 0.0 0.00 0.00 0.00 77 1011.0
20171212094147 40 157 0.0 0.0 0.00 0.00 0.00 77 1011.1
20171212093648 40 157 0.0 0.0 0.00 0.00 0.00 77 1011.1
20171212093149 40 157 0.0 0.0 0.00 0.00 0.00 77 1011.1
20171212092651 40 157 0.0 0.0 0.00 0.00 0.00 77 1011.1
20171212092152 40 157 0.0 0.0 0.00 0.00 0.00 78 1011.1
20171212091653 40 157 0.0 0.0 0.00 0.00 0.00 78 1011.1
20171212091154 40 157 0.0 0.0 0.00 0.00 0.00 77 1011.2
20171212090640 40 157 0.0 0.0 0.00 0.00 0.00 77 1011.2
20171212090143 40 157 0.0 0.0 0.00 0.00 0.00 77 1011.2
20171212085643 40 157 0.0 0.0 0.00 0.00 0.00 77 1011.2
20171212085144 40 157 0.0 0.0 0.00 0.00 0.00 77 1011.2
20171212084644 40 157 0.0 0.0 0.00 0.00 0.00 77 1011.2
20171212084147 40 157 0.0 0.0 0.00 0.00 0.00 77 1011.1
20171212083651 41 157 0.0 0.0 0.00 0.00 0.00 77 1011.1
20171212083152 41 157 0.0 0.0 0.00 0.00 0.00 77 1011.1
20171212082653 41 157 0.0 0.0 0.00 0.00 0.00 77 1011.3
20171212082155 41 157 0.0 0.0 0.00 0.00 0.00 77 1011.3
20171212081656 41 157 0.0 0.0 0.00 0.00 0.00 77 1011.3
20171212081140 41 157 0.0 0.0 0.00 0.00 0.00 77 1011.0
20171212080648 41 157 0.0 0.0 0.00 0.00 0.00 77 1011.0
20171212080154 41 157 0.0 0.0 0.00 0.00 0.00 77 1011.0
20171212075640 41 157 0.0 0.0 0.00 0.00 0.00 77 1011.1
20171212075148 40 157 0.0 0.0 0.00 0.00 0.00 77 1011.1
20171212074649 40 157 0.0 0.0 0.00 0.00 0.00 77 1011.1
20171212074150 40 157 0.0 0.0 0.00 0.00 0.00 77 1011.1
20171212073652 40 157 0.0 0.0 0.00 0.00 0.00 77 1011.1
20171212073153 40 157 0.0 0.0 0.00 0.00 0.00 77 1011.1
20171212072655 40 157 0.0 0.0 0.00 0.00 0.00 77 1011.0
20171212072159 40 157 0.0 0.0 0.00 0.00 0.00 77 1011.0
20171212071641 40 157 0.0 0.0 0.00 0.00 0.00 77 1011.0
20171212071150 40 157 0.0 0.0 0.00 0.00 0.00 77 1011.2
20171212070650 40 157 0.0 0.0 0.00 0.00 0.00 77 1011.2
20171212070156 40 273 0.0 0.0 0.00 0.00 0.00 77 1011.2
20171212065700 40 273 0.0 0.0 0.00 0.00 0.00 76 1011.3
20171212065201 40 273 0.0 0.0 0.00 0.00 0.00 75 1011.3
20171212064641 41 273 0.0 0.0 0.00 0.00 0.00 75 1011.3
20171212064146 41 273 0.0 0.0 0.00 0.00 0.00 74 1011.4
20171212063650 41 273 0.0 0.0 0.00 0.00 0.00 74 1011.4
20171212063155 41 273 0.0 0.0 0.00 0.00 0.00 74 1011.4
20171212062640 41 273 0.0 0.0 0.00 0.00 0.00 74 1011.5
20171212062144 41 273 0.0 0.0 0.00 0.00 0.00 73 1011.5
20171212061648 42 273 0.0 0.0 0.00 0.00 0.00 72 1011.5
20171212061152 42 273 0.0 0.0 0.00 0.00 0.00 71 1011.5
20171212060653 42 273 0.0 0.0 0.00 0.00 0.00 71 1011.5
20171212060155 43 273 0.0 0.0 0.00 0.00 0.00 70 1011.5
20171212055655 43 273 0.0 0.0 0.00 0.00 0.00 70 1011.6
20171212055157 43 273 0.0 0.0 0.00 0.00 0.00 69 1011.6
20171212054701 43 273 0.0 0.0 0.00 0.00 0.00 69 1011.6
20171212054143 44 168 0.0 0.0 0.00 0.00 0.00 69 1011.9
20171212053644 44 168 0.0 0.0 0.00 0.00 0.00 69 1011.9
20171212053150 44 168 0.0 0.0 0.00 0.00 0.00 68 1011.9
20171212052651 44 168 0.0 0.0 0.00 0.00 0.00 68 1012.1
20171212052156 44 168 0.0 0.0 0.00 0.00 0.00 68 1012.1